contact:dominique.lefevre@mio.osupytheas.fr, maurice.libes@osupytheas.fr, didier.mallarino@osupytheas.fr
Project:EMSO http://www.emso-fr.org/EMSO-France
Depth: 2436.0 m
Title:EMSO Ligure Ouest : Data MII capteur MICROCAT
DateTime_Computer,Latitude,Longitude,Temperature,Conductivity,Pressure,DateTime_Instrument
DateTime_Computer,Latitude,Longitude,degC,S m-1,dbar,DateTime_Instrument
2023-03-08T00:01:37Z,42.805,6.029,13.3021,4.60072,2470.6,2023-3-08T02:04:12Z
2023-03-08T00:04:40Z,42.805,6.029,13.3024,4.60074,2470.646,2023-3-08T02:07:16Z
2023-03-08T00:07:43Z,42.805,6.029,13.3026,4.60082,2470.614,2023-3-08T02:10:19Z
2023-03-08T00:10:46Z,42.805,6.029,13.3024,4.60077,2470.614,2023-3-08T02:13:22Z
2023-03-08T00:13:49Z,42.805,6.029,13.3021,4.60075,2470.577,2023-3-08T02:16:25Z
2023-03-08T00:16:52Z,42.805,6.029,13.3024,4.60079,2470.624,2023-3-08T02:19:28Z
2023-03-08T00:19:55Z,42.805,6.029,13.3022,4.60073,2470.6,2023-3-08T02:22:31Z
2023-03-08T00:22:59Z,42.805,6.029,13.3023,4.60073,2470.6,2023-3-08T02:25:34Z
2023-03-08T00:26:02Z,42.805,6.029,13.3024,4.60074,2470.637,2023-3-08T02:28:37Z
2023-03-08T00:29:05Z,42.805,6.029,13.3020,4.60073,2470.6,2023-3-08T02:31:40Z
2023-03-08T00:32:08Z,42.805,6.029,13.3022,4.60072,2470.614,2023-3-08T02:34:43Z
2023-03-08T00:35:11Z,42.805,6.029,13.3023,4.60074,2470.591,2023-3-08T02:37:46Z
2023-03-08T00:38:14Z,42.805,6.029,13.3024,4.60074,2470.577,2023-3-08T02:40:49Z
2023-03-08T00:41:17Z,42.805,6.029,13.3023,4.60074,2470.6,2023-3-08T02:43:52Z
2023-03-08T00:44:20Z,42.805,6.029,13.3024,4.60072,2470.6,2023-3-08T02:46:56Z
2023-03-08T00:47:23Z,42.805,6.029,13.3024,4.60073,2470.577,2023-3-08T02:49:59Z
2023-03-08T00:50:26Z,42.805,6.029,13.3022,4.60072,2470.624,2023-3-08T02:53:02Z
2023-03-08T00:53:29Z,42.805,6.029,13.3028,4.60072,2470.591,2023-3-08T02:56:05Z
2023-03-08T00:56:32Z,42.805,6.029,13.3024,4.60075,2470.6,2023-3-08T02:59:08Z
2023-03-08T00:59:35Z,42.805,6.029,13.3024,4.60071,2470.577,2023-3-08T03:02:11Z
2023-03-08T01:02:39Z,42.805,6.029,13.3024,4.60072,2470.6,2023-3-08T03:05:14Z
2023-03-08T01:05:42Z,42.805,6.029,13.3021,4.60073,2470.6,2023-3-08T03:08:17Z
2023-03-08T01:08:45Z,42.805,6.029,13.3023,4.60072,2470.553,2023-3-08T03:11:20Z
2023-03-08T01:11:48Z,42.805,6.029,13.3025,4.60073,2470.577,2023-3-08T03:14:23Z
2023-03-08T01:14:51Z,42.805,6.029,13.3026,4.60071,2470.577,2023-3-08T03:17:26Z
2023-03-08T01:17:54Z,42.805,6.029,13.3021,4.60070,2470.577,2023-3-08T03:20:29Z
2023-03-08T01:20:57Z,42.805,6.029,13.3021,4.60070,2470.53,2023-3-08T03:23:32Z
2023-03-08T01:24:00Z,42.805,6.029,13.3019,4.60071,2470.567,2023-3-08T03:26:36Z
2023-03-08T01:27:03Z,42.805,6.029,13.3027,4.60072,2470.6,2023-3-08T03:29:39Z
2023-03-08T01:30:06Z,42.805,6.029,13.3024,4.60071,2470.591,2023-3-08T03:32:42Z
2023-03-08T01:33:09Z,42.805,6.029,13.3022,4.60072,2470.577,2023-3-08T03:35:45Z
2023-03-08T01:36:12Z,42.805,6.029,13.3024,4.60070,2470.567,2023-3-08T03:38:48Z
2023-03-08T01:39:15Z,42.805,6.029,13.3024,4.60072,2470.577,2023-3-08T03:41:51Z
2023-03-08T01:42:19Z,42.805,6.029,13.3020,4.60071,2470.591,2023-3-08T03:44:54Z
2023-03-08T01:45:22Z,42.805,6.029,13.3022,4.60073,2470.577,2023-3-08T03:47:57Z
2023-03-08T01:48:25Z,42.805,6.029,13.3026,4.60070,2470.577,2023-3-08T03:51:00Z
2023-03-08T01:51:28Z,42.805,6.029,13.3026,4.60071,2470.591,2023-3-08T03:54:03Z
2023-03-08T01:54:31Z,42.805,6.029,13.3024,4.60071,2470.577,2023-3-08T03:57:06Z
2023-03-08T01:57:34Z,42.805,6.029,13.3021,4.60072,2470.6,2023-3-08T04:00:09Z
2023-03-08T02:00:37Z,42.805,6.029,13.3019,4.60072,2470.577,2023-3-08T04:03:12Z
2023-03-08T02:03:40Z,42.805,6.029,13.3023,4.60071,2470.577,2023-3-08T04:06:16Z
2023-03-08T02:06:43Z,42.805,6.029,13.3024,4.60071,2470.591,2023-3-08T04:09:19Z
2023-03-08T02:09:46Z,42.805,6.029,13.3021,4.60072,2470.591,2023-3-08T04:12:22Z
2023-03-08T02:12:49Z,42.805,6.029,13.3024,4.60071,2470.553,2023-3-08T04:15:25Z
2023-03-08T02:15:52Z,42.805,6.029,13.3026,4.60071,2470.591,2023-3-08T04:18:28Z
2023-03-08T02:18:55Z,42.805,6.029,13.3027,4.60072,2470.567,2023-3-08T04:21:31Z
2023-03-08T02:21:59Z,42.805,6.029,13.3026,4.60074,2470.553,2023-3-08T04:24:34Z
2023-03-08T02:25:02Z,42.805,6.029,13.3021,4.60072,2470.591,2023-3-08T04:27:37Z
2023-03-08T02:28:05Z,42.805,6.029,13.3021,4.60073,2470.553,2023-3-08T04:30:40Z
2023-03-08T02:31:08Z,42.805,6.029,13.3024,4.60073,2470.577,2023-3-08T04:33:43Z
2023-03-08T02:34:11Z,42.805,6.029,13.3021,4.60077,2470.553,2023-3-08T04:36:46Z
2023-03-08T02:37:14Z,42.805,6.029,13.3024,4.60075,2470.6,2023-3-08T04:39:49Z
2023-03-08T02:40:17Z,42.805,6.029,13.3023,4.60075,2470.6,2023-3-08T04:42:52Z
2023-03-08T02:43:20Z,42.805,6.029,13.3021,4.60073,2470.577,2023-3-08T04:45:56Z
2023-03-08T02:46:23Z,42.805,6.029,13.3024,4.60072,2470.614,2023-3-08T04:48:59Z
2023-03-08T02:49:26Z,42.805,6.029,13.3027,4.60071,2470.6,2023-3-08T04:52:02Z
2023-03-08T02:52:29Z,42.805,6.029,13.3024,4.60072,2470.586,2023-3-08T04:55:05Z
2023-03-08T02:55:32Z,42.805,6.029,13.3021,4.60073,2470.614,2023-3-08T04:58:08Z
2023-03-08T02:58:35Z,42.805,6.029,13.3026,4.60073,2470.614,2023-3-08T05:01:11Z
2023-03-08T03:01:38Z,42.805,6.029,13.3021,4.60072,2470.577,2023-3-08T05:04:14Z
2023-03-08T03:04:42Z,42.805,6.029,13.3025,4.60072,2470.577,2023-3-08T05:07:17Z
2023-03-08T03:07:45Z,42.805,6.029,13.3020,4.60073,2470.6,2023-3-08T05:10:20Z
2023-03-08T03:10:48Z,42.805,6.029,13.3026,4.60072,2470.577,2023-3-08T05:13:23Z
2023-03-08T03:13:51Z,42.805,6.029,13.3022,4.60074,2470.6,2023-3-08T05:16:26Z
2023-03-08T03:16:54Z,42.805,6.029,13.3024,4.60072,2470.6,2023-3-08T05:19:29Z
2023-03-08T03:19:57Z,42.805,6.029,13.3021,4.60073,2470.577,2023-3-08T05:22:32Z
2023-03-08T03:23:00Z,42.805,6.029,13.3027,4.60072,2470.614,2023-3-08T05:25:35Z
2023-03-08T03:26:03Z,42.805,6.029,13.3024,4.60073,2470.553,2023-3-08T05:28:39Z
2023-03-08T03:29:06Z,42.805,6.029,13.3024,4.60073,2470.6,2023-3-08T05:31:42Z
2023-03-08T03:32:09Z,42.805,6.029,13.3023,4.60072,2470.624,2023-3-08T05:34:45Z
2023-03-08T03:35:12Z,42.805,6.029,13.3020,4.60074,2470.6,2023-3-08T05:37:48Z
2023-03-08T03:38:15Z,42.805,6.029,13.3025,4.60074,2470.6,2023-3-08T05:40:51Z
2023-03-08T03:41:18Z,42.805,6.029,13.3025,4.60074,2470.6,2023-3-08T05:43:54Z
2023-03-08T03:44:22Z,42.805,6.029,13.3030,4.60073,2470.6,2023-3-08T05:46:57Z
2023-03-08T03:47:25Z,42.805,6.029,13.3024,4.60072,2470.661,2023-3-08T05:50:00Z
2023-03-08T03:50:28Z,42.805,6.029,13.3024,4.60073,2470.624,2023-3-08T05:53:03Z
2023-03-08T03:53:31Z,42.805,6.029,13.3025,4.60074,2470.646,2023-3-08T05:56:06Z
2023-03-08T03:56:34Z,42.805,6.029,13.3028,4.60075,2470.624,2023-3-08T05:59:09Z
2023-03-08T03:59:37Z,42.805,6.029,13.3024,4.60074,2470.624,2023-3-08T06:02:12Z
2023-03-08T04:02:40Z,42.805,6.029,13.3025,4.60074,2470.646,2023-3-08T06:05:16Z
2023-03-08T04:05:43Z,42.805,6.029,13.3029,4.60074,2470.624,2023-3-08T06:08:19Z
2023-03-08T04:08:46Z,42.805,6.029,13.3026,4.60074,2470.637,2023-3-08T06:11:22Z
2023-03-08T04:11:49Z,42.805,6.029,13.3024,4.60075,2470.67,2023-3-08T06:14:25Z
2023-03-08T04:14:52Z,42.805,6.029,13.3031,4.60075,2470.624,2023-3-08T06:17:28Z
2023-03-08T04:17:55Z,42.805,6.029,13.3022,4.60074,2470.661,2023-3-08T06:20:31Z
2023-03-08T04:20:58Z,42.805,6.029,13.3022,4.60075,2470.646,2023-3-08T06:23:34Z
2023-03-08T04:24:01Z,42.805,6.029,13.3028,4.60075,2470.661,2023-3-08T06:26:37Z
2023-03-08T04:27:05Z,42.805,6.029,13.3026,4.60076,2470.693,2023-3-08T06:29:40Z
2023-03-08T04:30:08Z,42.805,6.029,13.3030,4.60076,2470.661,2023-3-08T06:32:43Z
2023-03-08T04:33:11Z,42.805,6.029,13.3026,4.60077,2470.67,2023-3-08T06:35:46Z
2023-03-08T04:36:14Z,42.805,6.029,13.3030,4.60077,2470.67,2023-3-08T06:38:49Z
2023-03-08T04:39:17Z,42.805,6.029,13.3024,4.60077,2470.67,2023-3-08T06:41:52Z
2023-03-08T04:42:20Z,42.805,6.029,13.3029,4.60077,2470.67,2023-3-08T06:44:55Z
2023-03-08T04:45:23Z,42.805,6.029,13.3026,4.60078,2470.684,2023-3-08T06:47:59Z
2023-03-08T04:48:26Z,42.805,6.029,13.3024,4.60077,2470.73,2023-3-08T06:51:02Z
2023-03-08T04:51:29Z,42.805,6.029,13.3026,4.60077,2470.67,2023-3-08T06:54:05Z
2023-03-08T04:54:32Z,42.805,6.029,13.3025,4.60078,2470.67,2023-3-08T06:57:08Z
2023-03-08T04:57:35Z,42.805,6.029,13.3028,4.60078,2470.717,2023-3-08T07:00:11Z
2023-03-08T05:00:38Z,42.805,6.029,13.3026,4.60079,2470.67,2023-3-08T07:03:14Z
2023-03-08T05:03:41Z,42.805,6.029,13.3029,4.60078,2470.67,2023-3-08T07:06:17Z
2023-03-08T05:06:45Z,42.805,6.029,13.3027,4.60078,2470.693,2023-3-08T07:09:20Z
2023-03-08T05:09:48Z,42.805,6.029,13.3029,4.60079,2470.74,2023-3-08T07:12:23Z
2023-03-08T05:12:51Z,42.805,6.029,13.3027,4.60084,2470.717,2023-3-08T07:15:26Z
2023-03-08T05:15:54Z,42.805,6.029,13.3028,4.60079,2470.717,2023-3-08T07:18:29Z
2023-03-08T05:18:57Z,42.805,6.029,13.3026,4.60079,2470.754,2023-3-08T07:21:32Z
2023-03-08T05:22:00Z,42.805,6.029,13.3029,4.60081,2470.693,2023-3-08T07:24:35Z
2023-03-08T05:25:03Z,42.805,6.029,13.3029,4.60079,2470.763,2023-3-08T07:27:38Z
2023-03-08T05:28:06Z,42.805,6.029,13.3026,4.60080,2470.717,2023-3-08T07:30:42Z
2023-03-08T05:31:09Z,42.805,6.029,13.3028,4.60079,2470.726,2023-3-08T07:33:45Z
2023-03-08T05:34:12Z,42.805,6.029,13.3026,4.60079,2470.74,2023-3-08T07:36:48Z
2023-03-08T05:37:15Z,42.805,6.029,13.3029,4.60079,2470.754,2023-3-08T07:39:51Z
2023-03-08T05:40:18Z,42.805,6.029,13.3032,4.60081,2470.787,2023-3-08T07:42:54Z
2023-03-08T05:43:21Z,42.805,6.029,13.3029,4.60079,2470.74,2023-3-08T07:45:57Z
2023-03-08T05:46:24Z,42.805,6.029,13.3031,4.60080,2470.74,2023-3-08T07:49:00Z
2023-03-08T05:49:28Z,42.805,6.029,13.3029,4.60080,2470.763,2023-3-08T07:52:03Z
2023-03-08T05:52:31Z,42.805,6.029,13.3028,4.60079,2470.754,2023-3-08T07:55:06Z
2023-03-08T05:55:34Z,42.805,6.029,13.3029,4.60080,2470.754,2023-3-08T07:58:09Z
2023-03-08T05:58:37Z,42.805,6.029,13.3027,4.60080,2470.787,2023-3-08T08:01:12Z
2023-03-08T06:01:40Z,42.805,6.029,13.3030,4.60079,2470.763,2023-3-08T08:04:15Z
2023-03-08T06:04:43Z,42.805,6.029,13.3030,4.60080,2470.763,2023-3-08T08:07:19Z
2023-03-08T06:07:46Z,42.805,6.029,13.3029,4.60079,2470.754,2023-3-08T08:10:22Z
2023-03-08T06:10:49Z,42.805,6.029,13.3031,4.60080,2470.787,2023-3-08T08:13:25Z
2023-03-08T06:13:52Z,42.805,6.029,13.3029,4.60080,2470.787,2023-3-08T08:16:28Z
2023-03-08T06:16:55Z,42.805,6.029,13.3031,4.60079,2470.8,2023-3-08T08:19:31Z
2023-03-08T06:19:58Z,42.805,6.029,13.3029,4.60080,2470.8,2023-3-08T08:22:34Z
2023-03-08T06:23:01Z,42.805,6.029,13.3031,4.60080,2470.787,2023-3-08T08:25:37Z
2023-03-08T06:26:04Z,42.805,6.029,13.3031,4.60080,2470.763,2023-3-08T08:28:40Z
2023-03-08T06:29:08Z,42.805,6.029,13.3029,4.60081,2470.787,2023-3-08T08:31:43Z
2023-03-08T06:32:11Z,42.805,6.029,13.3031,4.60080,2470.787,2023-3-08T08:34:46Z
2023-03-08T06:35:14Z,42.805,6.029,13.3032,4.60081,2470.787,2023-3-08T08:37:49Z
2023-03-08T06:38:17Z,42.805,6.029,13.3028,4.60084,2470.787,2023-3-08T08:40:52Z
2023-03-08T06:41:20Z,42.805,6.029,13.3026,4.60080,2470.787,2023-3-08T08:43:55Z
2023-03-08T06:44:23Z,42.805,6.029,13.3029,4.60080,2470.787,2023-3-08T08:46:59Z
2023-03-08T06:47:26Z,42.805,6.029,13.3030,4.60080,2470.787,2023-3-08T08:50:02Z
2023-03-08T06:50:29Z,42.805,6.029,13.3031,4.60082,2470.847,2023-3-08T08:53:05Z
2023-03-08T06:53:32Z,42.805,6.029,13.3025,4.60081,2470.81,2023-3-08T08:56:08Z
2023-03-08T06:56:35Z,42.805,6.029,13.3031,4.60081,2470.833,2023-3-08T08:59:11Z
2023-03-08T06:59:38Z,42.805,6.029,13.3032,4.60081,2470.833,2023-3-08T09:02:14Z
2023-03-08T07:02:41Z,42.805,6.029,13.3030,4.60081,2470.81,2023-3-08T09:05:17Z
2023-03-08T07:05:44Z,42.805,6.029,13.3031,4.60081,2470.833,2023-3-08T09:08:20Z
2023-03-08T07:08:47Z,42.805,6.029,13.3027,4.60082,2470.824,2023-3-08T09:11:23Z
2023-03-08T07:11:51Z,42.805,6.029,13.3029,4.60081,2470.833,2023-3-08T09:14:26Z
2023-03-08T07:14:54Z,42.805,6.029,13.3032,4.60082,2470.833,2023-3-08T09:17:29Z
2023-03-08T07:17:57Z,42.805,6.029,13.3031,4.60081,2470.833,2023-3-08T09:20:32Z
2023-03-08T07:21:00Z,42.805,6.029,13.3028,4.60081,2470.847,2023-3-08T09:23:35Z
2023-03-08T07:24:03Z,42.805,6.029,13.3031,4.60081,2470.833,2023-3-08T09:26:38Z
2023-03-08T07:27:06Z,42.805,6.029,13.3029,4.60081,2470.871,2023-3-08T09:29:42Z
2023-03-08T07:30:09Z,42.805,6.029,13.3031,4.60081,2470.824,2023-3-08T09:32:45Z
2023-03-08T07:33:12Z,42.805,6.029,13.3032,4.60081,2470.847,2023-3-08T09:35:48Z
2023-03-08T07:36:15Z,42.805,6.029,13.3029,4.60084,2470.857,2023-3-08T09:38:51Z
2023-03-08T07:39:18Z,42.805,6.029,13.3029,4.60081,2470.833,2023-3-08T09:41:54Z
2023-03-08T07:42:21Z,42.805,6.029,13.3031,4.60083,2470.857,2023-3-08T09:44:57Z
2023-03-08T07:45:24Z,42.805,6.029,13.3030,4.60081,2470.833,2023-3-08T09:48:00Z
2023-03-08T07:48:27Z,42.805,6.029,13.3026,4.60082,2470.833,2023-3-08T09:51:03Z
2023-03-08T07:51:31Z,42.805,6.029,13.3034,4.60087,2470.833,2023-3-08T09:54:06Z
2023-03-08T07:54:34Z,42.805,6.029,13.3031,4.60081,2470.833,2023-3-08T09:57:09Z
2023-03-08T07:57:37Z,42.805,6.029,13.3034,4.60082,2470.857,2023-3-08T10:00:12Z
2023-03-08T08:00:40Z,42.805,6.029,13.3035,4.60084,2470.833,2023-3-08T10:03:15Z
2023-03-08T08:03:43Z,42.805,6.029,13.3029,4.60082,2470.857,2023-3-08T10:06:18Z
2023-03-08T08:06:46Z,42.805,6.029,13.3031,4.60082,2470.871,2023-3-08T10:09:22Z
2023-03-08T08:09:49Z,42.805,6.029,13.3030,4.60083,2470.824,2023-3-08T10:12:25Z
2023-03-08T08:12:52Z,42.805,6.029,13.3034,4.60084,2470.833,2023-3-08T10:15:28Z
2023-03-08T08:15:55Z,42.805,6.029,13.3031,4.60084,2470.88,2023-3-08T10:18:31Z
2023-03-08T08:18:58Z,42.805,6.029,13.3029,4.60083,2470.857,2023-3-08T10:21:34Z
2023-03-08T08:22:01Z,42.805,6.029,13.3032,4.60082,2470.847,2023-3-08T10:24:37Z
2023-03-08T08:25:04Z,42.805,6.029,13.3034,4.60083,2470.833,2023-3-08T10:27:40Z
2023-03-08T08:28:08Z,42.805,6.029,13.3033,4.60082,2470.857,2023-3-08T10:30:43Z
2023-03-08T08:31:11Z,42.805,6.029,13.3031,4.60083,2470.857,2023-3-08T10:33:46Z
2023-03-08T08:34:14Z,42.805,6.029,13.3029,4.60086,2470.857,2023-3-08T10:36:49Z
2023-03-08T08:37:17Z,42.805,6.029,13.3032,4.60086,2470.82,2023-3-08T10:39:52Z
2023-03-08T08:40:20Z,42.805,6.029,13.3034,4.60085,2470.871,2023-3-08T10:42:55Z
2023-03-08T08:43:23Z,42.805,6.029,13.3032,4.60086,2470.894,2023-3-08T10:45:59Z
2023-03-08T08:46:26Z,42.805,6.029,13.3035,4.60084,2470.833,2023-3-08T10:49:02Z
2023-03-08T08:49:29Z,42.805,6.029,13.3033,4.60086,2470.857,2023-3-08T10:52:05Z
2023-03-08T08:52:32Z,42.805,6.029,13.3034,4.60086,2470.871,2023-3-08T10:55:08Z
2023-03-08T08:55:35Z,42.805,6.029,13.3037,4.60087,2470.847,2023-3-08T10:58:11Z
2023-03-08T08:58:38Z,42.805,6.029,13.3038,4.60087,2470.833,2023-3-08T11:01:14Z
2023-03-08T09:01:41Z,42.805,6.029,13.3033,4.60088,2470.847,2023-3-08T11:04:17Z
2023-03-08T09:04:44Z,42.805,6.029,13.3034,4.60089,2470.847,2023-3-08T11:07:20Z
2023-03-08T09:07:47Z,42.805,6.029,13.3037,4.60087,2470.857,2023-3-08T11:10:23Z
2023-03-08T09:10:51Z,42.805,6.029,13.3037,4.60087,2470.833,2023-3-08T11:13:26Z
2023-03-08T09:13:54Z,42.805,6.029,13.3036,4.60088,2470.833,2023-3-08T11:16:29Z
2023-03-08T09:16:57Z,42.805,6.029,13.3036,4.60087,2470.824,2023-3-08T11:19:32Z
2023-03-08T09:20:00Z,42.805,6.029,13.3036,4.60091,2470.81,2023-3-08T11:22:35Z
2023-03-08T09:23:03Z,42.805,6.029,13.3036,4.60089,2470.796,2023-3-08T11:25:39Z
2023-03-08T09:26:06Z,42.805,6.029,13.3037,4.60088,2470.833,2023-3-08T11:28:42Z
2023-03-08T09:29:09Z,42.805,6.029,13.3038,4.60089,2470.833,2023-3-08T11:31:45Z
2023-03-08T09:32:12Z,42.805,6.029,13.3039,4.60091,2470.833,2023-3-08T11:34:48Z
2023-03-08T09:35:15Z,42.805,6.029,13.3036,4.60089,2470.81,2023-3-08T11:37:51Z
2023-03-08T09:38:18Z,42.805,6.029,13.3034,4.60090,2470.787,2023-3-08T11:40:54Z
2023-03-08T09:41:21Z,42.805,6.029,13.3036,4.60089,2470.81,2023-3-08T11:43:57Z
2023-03-08T09:44:24Z,42.805,6.029,13.3035,4.60091,2470.857,2023-3-08T11:47:00Z
2023-03-08T09:47:28Z,42.805,6.029,13.3039,4.60090,2470.81,2023-3-08T11:50:03Z
2023-03-08T09:50:31Z,42.805,6.029,13.3037,4.60091,2470.81,2023-3-08T11:53:06Z
2023-03-08T09:53:34Z,42.805,6.029,13.3037,4.60092,2470.787,2023-3-08T11:56:09Z
2023-03-08T09:56:37Z,42.805,6.029,13.3042,4.60094,2470.81,2023-3-08T11:59:12Z
2023-03-08T09:59:40Z,42.805,6.029,13.3038,4.60094,2470.787,2023-3-08T12:02:16Z
2023-03-08T10:02:43Z,42.805,6.029,13.3041,4.60095,2470.824,2023-3-08T12:05:19Z
2023-03-08T10:05:46Z,42.805,6.029,13.3041,4.60094,2470.833,2023-3-08T12:08:22Z
2023-03-08T10:08:49Z,42.805,6.029,13.3035,4.60094,2470.81,2023-3-08T12:11:25Z
2023-03-08T10:11:52Z,42.805,6.029,13.3041,4.60096,2470.787,2023-3-08T12:14:28Z
2023-03-08T10:14:55Z,42.805,6.029,13.3044,4.60099,2470.787,2023-3-08T12:17:31Z
2023-03-08T10:17:58Z,42.805,6.029,13.3045,4.60097,2470.777,2023-3-08T12:20:34Z
2023-03-08T10:21:01Z,42.805,6.029,13.3046,4.60097,2470.8,2023-3-08T12:23:37Z
2023-03-08T10:24:05Z,42.805,6.029,13.3043,4.60097,2470.787,2023-3-08T12:26:40Z
2023-03-08T10:27:08Z,42.805,6.029,13.3043,4.60098,2470.81,2023-3-08T12:29:43Z
2023-03-08T10:30:11Z,42.805,6.029,13.3048,4.60101,2470.8,2023-3-08T12:32:46Z
2023-03-08T10:33:14Z,42.805,6.029,13.3046,4.60103,2470.777,2023-3-08T12:35:49Z
2023-03-08T10:36:17Z,42.805,6.029,13.3042,4.60101,2470.8,2023-3-08T12:38:52Z
2023-03-08T10:39:20Z,42.805,6.029,13.3045,4.60101,2470.763,2023-3-08T12:41:56Z
2023-03-08T10:42:23Z,42.805,6.029,13.3048,4.60104,2470.824,2023-3-08T12:44:59Z
2023-03-08T10:45:26Z,42.805,6.029,13.3050,4.60105,2470.763,2023-3-08T12:48:02Z
2023-03-08T10:48:29Z,42.805,6.029,13.3051,4.60106,2470.74,2023-3-08T12:51:05Z
2023-03-08T10:51:32Z,42.805,6.029,13.3052,4.60108,2470.787,2023-3-08T12:54:08Z
2023-03-08T10:54:35Z,42.805,6.029,13.3049,4.60108,2470.8,2023-3-08T12:57:11Z
2023-03-08T10:57:38Z,42.805,6.029,13.3051,4.60109,2470.763,2023-3-08T13:00:14Z
2023-03-08T11:00:41Z,42.805,6.029,13.3052,4.60108,2470.8,2023-3-08T13:03:17Z
2023-03-08T11:03:45Z,42.805,6.029,13.3056,4.60110,2470.754,2023-3-08T13:06:20Z
2023-03-08T11:06:48Z,42.805,6.029,13.3051,4.60105,2470.763,2023-3-08T13:09:23Z
2023-03-08T11:09:51Z,42.805,6.029,13.3067,4.60119,2470.763,2023-3-08T13:12:26Z
2023-03-08T11:12:54Z,42.805,6.029,13.3057,4.60117,2470.754,2023-3-08T13:15:29Z
2023-03-08T11:15:57Z,42.805,6.029,13.3067,4.60127,2470.74,2023-3-08T13:18:33Z
2023-03-08T11:19:00Z,42.805,6.029,13.3070,4.60119,2470.754,2023-3-08T13:21:36Z
2023-03-08T11:22:03Z,42.805,6.029,13.3071,4.60143,2470.763,2023-3-08T13:24:39Z
2023-03-08T11:25:06Z,42.805,6.029,13.3059,4.60133,2470.777,2023-3-08T13:27:42Z
2023-03-08T11:28:09Z,42.805,6.029,13.3061,4.60149,2470.74,2023-3-08T13:30:45Z
2023-03-08T11:31:12Z,42.805,6.029,13.3048,4.60124,2470.754,2023-3-08T13:33:48Z
2023-03-08T11:34:15Z,42.805,6.029,13.3054,4.60139,2470.74,2023-3-08T13:36:51Z
2023-03-08T11:37:18Z,42.805,6.029,13.3062,4.60147,2470.73,2023-3-08T13:39:54Z
2023-03-08T11:40:21Z,42.805,6.029,13.3054,4.60143,2470.754,2023-3-08T13:42:57Z
2023-03-08T11:43:25Z,42.805,6.029,13.3051,4.60146,2470.74,2023-3-08T13:46:00Z
2023-03-08T11:46:28Z,42.805,6.029,13.3061,4.60144,2470.717,2023-3-08T13:49:03Z
2023-03-08T11:49:31Z,42.805,6.029,13.3047,4.60135,2470.73,2023-3-08T13:52:06Z
2023-03-08T11:52:34Z,42.805,6.029,13.3055,4.60140,2470.73,2023-3-08T13:55:09Z
2023-03-08T11:55:37Z,42.805,6.029,13.3048,4.60148,2470.74,2023-3-08T13:58:13Z
2023-03-08T11:58:40Z,42.805,6.029,13.3056,4.60151,2470.73,2023-3-08T14:01:16Z
2023-03-08T12:01:43Z,42.805,6.029,13.3050,4.60143,2470.717,2023-3-08T14:04:19Z
2023-03-08T12:04:46Z,42.805,6.029,13.3050,4.60144,2470.693,2023-3-08T14:07:22Z
2023-03-08T12:07:49Z,42.805,6.029,13.3046,4.60119,2470.707,2023-3-08T14:10:25Z
2023-03-08T12:10:52Z,42.805,6.029,13.3054,4.60125,2470.717,2023-3-08T14:13:28Z
2023-03-08T12:13:55Z,42.805,6.029,13.3046,4.60125,2470.693,2023-3-08T14:16:31Z
2023-03-08T12:16:58Z,42.805,6.029,13.3055,4.60135,2470.707,2023-3-08T14:19:34Z
2023-03-08T12:20:01Z,42.805,6.029,13.3047,4.60124,2470.693,2023-3-08T14:22:37Z
2023-03-08T12:23:05Z,42.805,6.029,13.3050,4.60140,2470.684,2023-3-08T14:25:40Z
2023-03-08T12:26:08Z,42.805,6.029,13.3056,4.60150,2470.707,2023-3-08T14:28:43Z
2023-03-08T12:29:11Z,42.805,6.029,13.3043,4.60112,2470.703,2023-3-08T14:31:46Z
2023-03-08T12:32:14Z,42.805,6.029,13.3047,4.60111,2470.67,2023-3-08T14:34:50Z
2023-03-08T12:35:17Z,42.805,6.029,13.3046,4.60124,2470.693,2023-3-08T14:37:53Z
2023-03-08T12:38:20Z,42.805,6.029,13.3056,4.60135,2470.693,2023-3-08T14:40:56Z
2023-03-08T12:41:23Z,42.805,6.029,13.3043,4.60135,2470.67,2023-3-08T14:43:59Z
2023-03-08T12:44:26Z,42.805,6.029,13.3043,4.60127,2470.693,2023-3-08T14:47:02Z
2023-03-08T12:47:29Z,42.805,6.029,13.3049,4.60143,2470.693,2023-3-08T14:50:05Z
2023-03-08T12:50:32Z,42.805,6.029,13.3046,4.60140,2470.646,2023-3-08T14:53:08Z
2023-03-08T12:53:35Z,42.805,6.029,13.3055,4.60127,2470.707,2023-3-08T14:56:11Z
2023-03-08T12:56:38Z,42.805,6.029,13.3046,4.60140,2470.646,2023-3-08T14:59:14Z
2023-03-08T12:59:42Z,42.805,6.029,13.3041,4.60142,2470.67,2023-3-08T15:02:17Z
2023-03-08T13:02:45Z,42.805,6.029,13.3047,4.60129,2470.646,2023-3-08T15:05:20Z
2023-03-08T13:05:48Z,42.805,6.029,13.3055,4.60127,2470.67,2023-3-08T15:08:23Z
2023-03-08T13:08:51Z,42.805,6.029,13.3037,4.60152,2470.646,2023-3-08T15:11:27Z
2023-03-08T13:11:54Z,42.805,6.029,13.3041,4.60119,2470.661,2023-3-08T15:14:30Z
2023-03-08T13:14:57Z,42.805,6.029,13.3046,4.60099,2470.646,2023-3-08T15:17:33Z
2023-03-08T13:18:00Z,42.805,6.029,13.3046,4.60144,2470.67,2023-3-08T15:20:36Z
2023-03-08T13:21:03Z,42.805,6.029,13.3042,4.60152,2470.646,2023-3-08T15:23:39Z
2023-03-08T13:24:06Z,42.805,6.029,13.3040,4.60142,2470.67,2023-3-08T15:26:42Z
2023-03-08T13:27:09Z,42.805,6.029,13.3053,4.60152,2470.67,2023-3-08T15:29:45Z
2023-03-08T13:30:12Z,42.805,6.029,13.3038,4.60149,2470.646,2023-3-08T15:32:48Z
2023-03-08T13:33:15Z,42.805,6.029,13.3047,4.60128,2470.684,2023-3-08T15:35:51Z
2023-03-08T13:36:19Z,42.805,6.029,13.3043,4.60119,2470.646,2023-3-08T15:38:54Z
2023-03-08T13:39:22Z,42.805,6.029,13.3043,4.60135,2470.67,2023-3-08T15:41:57Z
2023-03-08T13:42:25Z,42.805,6.029,13.3053,4.60139,2470.646,2023-3-08T15:45:00Z
2023-03-08T13:45:28Z,42.805,6.029,13.3043,4.60129,2470.661,2023-3-08T15:48:04Z
2023-03-08T13:48:31Z,42.805,6.029,13.3040,4.60130,2470.684,2023-3-08T15:51:07Z
2023-03-08T13:51:34Z,42.805,6.029,13.3039,4.60123,2470.684,2023-3-08T15:54:10Z
2023-03-08T13:54:37Z,42.805,6.029,13.3041,4.60117,2470.637,2023-3-08T15:57:13Z
2023-03-08T13:57:40Z,42.805,6.029,13.3043,4.60154,2470.646,2023-3-08T16:00:16Z
2023-03-08T14:00:43Z,42.805,6.029,13.3049,4.60135,2470.661,2023-3-08T16:03:19Z
2023-03-08T14:03:46Z,42.805,6.029,13.3048,4.60163,2470.637,2023-3-08T16:06:22Z
2023-03-08T14:06:49Z,42.805,6.029,13.3045,4.60157,2470.624,2023-3-08T16:09:25Z
2023-03-08T14:09:52Z,42.805,6.029,13.3046,4.60147,2470.661,2023-3-08T16:12:28Z
2023-03-08T14:12:55Z,42.805,6.029,13.3052,4.60135,2470.646,2023-3-08T16:15:31Z
2023-03-08T14:15:59Z,42.805,6.029,13.3044,4.60141,2470.646,2023-3-08T16:18:34Z
2023-03-08T14:19:02Z,42.805,6.029,13.3057,4.60139,2470.646,2023-3-08T16:21:37Z
2023-03-08T14:22:05Z,42.805,6.029,13.3042,4.60126,2470.624,2023-3-08T16:24:40Z
2023-03-08T14:25:08Z,42.805,6.029,13.3043,4.60126,2470.661,2023-3-08T16:27:44Z
2023-03-08T14:28:11Z,42.805,6.029,13.3039,4.60148,2470.637,2023-3-08T16:30:47Z
2023-03-08T14:31:14Z,42.805,6.029,13.3036,4.60133,2470.646,2023-3-08T16:33:50Z
2023-03-08T14:34:17Z,42.805,6.029,13.3043,4.60154,2470.6,2023-3-08T16:36:53Z
2023-03-08T14:37:20Z,42.805,6.029,13.3069,4.60167,2470.624,2023-3-08T16:39:56Z
2023-03-08T14:40:23Z,42.805,6.029,13.3054,4.60133,2470.661,2023-3-08T16:42:59Z
2023-03-08T14:43:26Z,42.805,6.029,13.3063,4.60200,2470.624,2023-3-08T16:46:02Z
2023-03-08T14:46:29Z,42.805,6.029,13.3067,4.60157,2470.614,2023-3-08T16:49:05Z
2023-03-08T14:49:32Z,42.805,6.029,13.3060,4.60152,2470.614,2023-3-08T16:52:08Z
2023-03-08T14:52:35Z,42.805,6.029,13.3040,4.60144,2470.614,2023-3-08T16:55:11Z
2023-03-08T14:55:39Z,42.805,6.029,13.3039,4.60170,2470.637,2023-3-08T16:58:14Z
2023-03-08T14:58:42Z,42.805,6.029,13.3063,4.60127,2470.624,2023-3-08T17:01:17Z
2023-03-08T15:01:45Z,42.805,6.029,13.3055,4.60198,2470.6,2023-3-08T17:04:21Z
2023-03-08T15:04:48Z,42.805,6.029,13.3061,4.60145,2470.624,2023-3-08T17:07:24Z
2023-03-08T15:07:51Z,42.805,6.029,13.3040,4.60135,2470.646,2023-3-08T17:10:27Z
2023-03-08T15:10:54Z,42.805,6.029,13.3055,4.60158,2470.6,2023-3-08T17:13:30Z
2023-03-08T15:13:57Z,42.805,6.029,13.3048,4.60126,2470.637,2023-3-08T17:16:33Z